Regional Weather Roundup
Issued by NWS

Home | Current Version | Previous Version | Text Only | Print | Product List | Glossary On
Versions: 1 2 3 4 5 6 7 8 9 10 11 12 13 14 15 16 17 18 19 20 21 22 23 24 25 26 27 28 29 30 31 32 33 34 35 36 37 38 39 40 41 42 43 44 45 46 47 48 49 50
000
ASUS43 KDTX 290501
RWRMI
MICHIGAN HOURLY REGIONAL WEATHER ROUNDUP
NATIONAL WEATHER SERVICE DETROIT/PONTIAC MI
100 AM EDT MON AUG 29 2016

NOTE: "FAIR" INDICATES FEW OR NO CLOUDS BELOW 12,000 FEET WITH NO
SIGNIFICANT WEATHER AND/OR OBSTRUCTION TO VISIBILITY.

MIZ047>049-052>055-059>063-066>070-074>076-081>083-290600-
SOUTHEAST LOWER MICHIGAN

CITY           SKY/WX    TMP DP  RH WIND       PRES   REMARKS
ADRIAN         CLEAR     69  69 100 N5        30.24R
ALMA             N/A     64  64 100 CALM      30.25R FOG
ANN ARBOR      CLEAR     71  68  90 N6        30.23F
CARO           CLEAR     63  62  97 CALM      30.23S
DETROIT CITY   CLEAR     71  68  90 E5        30.24R
DETROIT        PTCLDY    73  70  90 NE7       30.23S
FLINT          CLEAR     64  60  87 CALM      30.25R FOG
GROSSE ILE     CLEAR     72  68  89 NE9       30.22R
HILLSDALE      FOG       67  66  96 E3        30.25R VSB 1
HOWELL         CLEAR     67  65  96 CALM      30.25S

CITY           SKY/WX    TMP DP  RH WIND       PRES   REMARKS
JACKSON        CLEAR     70  69  97 CALM      30.25S
LAMBERTVILLE   FOG       71  69  95 CALM      30.23R VSB 3/4
LANSING        PTCLDY    69  64  84 CALM      30.25S
LAPEER           N/A     62  61  97 CALM      30.25R FOG
MASON          PTCLDY    64  64 100 CALM      30.25S
MONROE         FOG       68  68 100 N3        30.22R VSB 1/4
MT. CLEMENS    CLEAR     69  68  98 E5        30.22S
PONTIAC        CLEAR     69  65  86 E3        30.24S
PORT HURON     FOG       63  63 100 CALM      30.24S VSB 1/4
TRI CITIES     CLEAR     67  66  97 N6        30.24R
MIDLAND        FAIR      63  63 100 N5        30.24R
TROY           CLEAR     73  68  84 CALM      30.26S
SAGINAW HB     CLEAR     64  63  94 S3        30.23S
$$
MIZ043>046-050>051-056>058-064>065-071>073-077>080-290600-
SOUTHWEST LOWER MICHIGAN

CITY           SKY/WX    TMP DP  RH WIND       PRES   REMARKS
BATTLE CREEK   CLEAR     68  68 100 CALM      30.24F
BENTON HARBOR  PTCLDY    67  64  90 CALM      30.23S
BIG RAPIDS     CLEAR     65  63  94 CALM      30.25R
COLDWATER      FOG       70  70 100 CALM      30.25R VSB 1/4
FREMONT        FAIR      64  63  96 CALM      30.24R
HOLLAND        PTCLDY    65  63  93 CALM      30.24S
GRAND RAPIDS   PTCLDY    69  65  86 CALM      30.25R
IONIA          FAIR      65  63  94 CALM      30.24S
KALAMAZOO      PTCLDY    70  67  90 CALM      30.24S
LUDINGTON      CLEAR     57  57 100 CALM      30.22S FOG
MARSHALL         N/A     68  68 100 CALM      30.24S
MOUNT PLEASANT CLEAR     65  65  97 N5        30.24R
MUSKEGON       PTCLDY    66  64  93 CALM      30.24R
SOUTH HAVEN    PTCLDY    67  66  94 CALM      30.24R
$$
MIZ016>042-290600-
NORTHERN LOWER MICHIGAN

CITY           SKY/WX    TMP DP  RH WIND       PRES   REMARKS
ALPENA         PTCLDY    60  58  92 CALM      30.26S
BEAVER ISLAND  CLEAR     58  58 100 CALM      30.25S FOG
BELLAIRE       CLEAR     56  55  97 CALM      30.25S FOG
CADILLAC       CLEAR     58  57  96 CALM      30.26S FOG
CHARLEVOIX     CLEAR     61  61  99 CALM      30.28R
FRANKFORT      CLEAR     59  57  93 CALM      30.24R
GAYLORD        CLEAR     60  55  83 CALM      30.27S
GRAYLING       FOG       55  55  98 CALM      30.28R VSB 1/2
HARBOR SPRINGS CLEAR     60  59  97 CALM      30.26R
HOUGHTON LAKE  CLEAR     58  57  97 NE5       30.28R
MANISTEE       FOG       58  58 100 CALM      30.23S VSB 1
OSCODA         CLEAR     60  59  99 CALM      30.25R
PELLSTON       CLEAR     58  56  93 CALM      30.26S
ROGERS CITY    CLEAR     59  57  92 CALM      30.27S
TRAVERSE CITY  CLEAR     62  60  93 CALM      30.23S
$$
MIZ007>008-015-290600-
EASTERN UPPER MICHIGAN

CITY           SKY/WX    TMP DP  RH WIND       PRES   REMARKS
KINROSS        CLEAR     58  57  97 W3        30.27R
MACKINAC ISLAN CLEAR     60  60 100 NE7       30.26R
NEWBERRY       CLEAR     54  53  97 CALM      30.26S
S. S. MARIE    CLEAR     57  55  93 S3        30.26R
$$
MIZ004>006-011>014-085-290600-
CENTRAL UPPER MICHIGAN

CITY           SKY/WX    TMP DP  RH WIND       PRES   REMARKS
MANISTIQUE     FOG       59  57  92 CALM      30.24S VSB 1
ESCANABA       CLEAR     59  59 100 CALM      30.24R
MENOMINEE      CLEAR    N/A N/A N/A CALM      30.23R FOG
SAWYER-GWINN   CLEAR     54  51  92 CALM      30.25S
$$
MIZ001>003-009>011-084-290600-
WESTERN UPPER MICHIGAN

CITY           SKY/WX    TMP DP  RH WIND       PRES   REMARKS
IRON MOUNTAIN  CLEAR     60  57  89 CALM      30.23R
HOUGHTON       CLEAR     61  58  90 E7        30.22S
IRONWOOD       CLEAR     67  62  84 S5        30.21R
$$

ABBREVIATIONS USED IN REMARKS
   TC - TEMPERATURE IN CELSIUS
  WCI - WIND CHILL INDEX
   HX - HEAT INDEX
  VSB - VISIBILITY





USA.gov is the U.S. government's official web portal to all federal, state and local government web resources and services.